period_start,C,m1,H,J0,J1,J2,J3,J4,J5,JA,JB,JC,JD,JJ,JK,JN,#
2016-05-16 00:00:37,0.06,0.96,0.00,24.25,27.97,31.19,14.33,48.92,1009.02,2033.11,3122.01,2878.27,3253.14,600.14,589.33,31.17,0000 0000 0000 0000 000000
2016-05-16 00:05:38,0.18,0.96,0.00,24.30,28.00,31.20,14.38,48.82,1008.88,2033.01,3118.70,2876.03,3250.66,599.91,588.86,31.22,0000 0000 0000 0000 000000
2016-05-16 00:10:39,0.21,0.97,0.00,24.33,28.02,31.20,14.36,48.54,1008.82,2033.00,3114.29,2873.15,3247.47,599.78,588.60,31.27,0000 0000 0000 0000 000000
2016-05-16 00:15:41,0.16,0.98,0.00,24.36,28.05,31.21,14.33,48.67,1008.81,2033.00,3110.64,2870.81,3244.87,599.90,588.67,31.32,0000 0000 0000 0000 000000
2016-05-16 00:20:42,0.15,0.99,0.00,24.37,28.07,31.21,14.26,48.88,1008.81,2032.96,3107.31,2868.66,3242.46,599.88,588.60,31.37,0000 0000 0000 0000 000000
2016-05-16 00:25:43,0.10,1.00,0.00,24.34,28.09,31.23,14.29,48.92,1008.81,2032.94,3104.98,2867.30,3240.95,599.84,588.60,31.42,0000 0000 0000 0000 000000
2016-05-16 00:30:45,0.22,1.01,0.00,24.32,28.10,31.23,14.36,48.80,1008.80,2032.63,3100.00,2864.08,3237.35,600.28,589.09,31.47,0000 0000 0000 0000 000000
2016-05-16 00:35:46,0.22,1.02,0.00,24.35,28.12,31.25,14.27,48.75,1008.81,2032.28,3094.76,2860.66,3233.59,599.85,588.61,31.52,0000 0000 0000 0000 000000
2016-05-16 00:40:47,0.18,1.03,0.00,24.39,28.13,31.24,14.38,48.92,1008.80,2032.09,3090.52,2857.90,3230.46,599.85,588.59,31.57,0000 0000 0000 0000 000000
2016-05-16 00:45:48,0.16,1.04,0.00,24.38,28.15,31.25,14.28,48.60,1008.80,2032.04,3086.93,2855.58,3227.94,599.74,588.49,31.62,0000 0000 0000 0000 000000
2016-05-16 00:50:50,0.19,1.05,0.00,24.34,28.15,31.26,14.42,48.75,1008.80,2032.01,3083.13,2853.12,3225.17,600.37,589.12,31.67,0000 0000 0000 0000 000000
2016-05-16 00:55:51,0.13,1.05,0.00,24.41,28.17,31.25,14.33,48.85,1008.80,2032.01,3080.15,2851.21,3222.98,600.14,588.86,31.72,0000 0000 0000 0000 000000
2016-05-16 01:00:52,0.08,1.06,0.00,24.41,28.17,31.25,14.31,48.78,1008.79,2032.01,3078.38,2849.94,3221.56,599.73,588.49,31.77,0000 0000 0000 0000 000000
2016-05-16 01:05:54,0.08,1.06,0.00,24.41,28.18,31.27,14.33,48.83,1008.78,2032.00,3076.55,2848.85,3220.43,600.16,588.80,31.82,0000 0000 0000 0000 000000
2016-05-16 01:10:55,0.08,1.07,0.00,24.40,28.20,31.26,14.34,48.82,1008.75,2032.00,3074.80,2847.78,3219.24,600.05,588.69,31.87,0000 0000 0000 0000 000000
2016-05-16 01:15:56,0.07,1.07,0.00,24.45,28.20,31.26,14.31,48.83,1008.62,2032.00,3073.00,2846.76,3217.96,599.99,588.52,31.92,0000 0000 0000 0000 000000
2016-05-16 01:20:57,0.06,1.07,0.00,24.48,28.21,31.26,14.30,48.69,1008.41,2032.00,3071.59,2845.83,3216.89,600.27,588.60,31.97,0000 0000 0000 0000 000000
2016-05-16 01:25:59,0.11,1.08,0.00,24.48,28.22,31.28,14.29,48.60,1008.34,2032.00,3069.72,2844.49,3215.40,599.97,588.20,32.02,0000 0000 0000 0000 000000
2016-05-16 01:31:00,0.10,1.08,0.00,24.49,28.22,31.25,14.37,48.66,1008.34,2032.00,3067.66,2842.90,3213.65,600.19,588.36,32.07,0000 0000 0000 0000 000000
2016-05-16 01:36:01,0.10,1.09,0.00,24.53,28.22,31.26,14.37,48.83,1008.39,2032.00,3065.50,2841.53,3212.09,600.38,588.45,32.12,0000 0000 0000 0000 000000
2016-05-16 01:41:03,0.14,1.10,0.00,24.53,28.24,31.25,14.35,48.82,1008.42,2032.00,3062.74,2839.69,3209.99,600.03,588.32,32.17,0000 0000 0000 0000 000000
2016-05-16 01:46:04,0.05,1.10,0.00,24.53,28.25,31.27,14.28,48.57,1008.41,2032.00,3060.94,2838.65,3208.81,599.70,587.92,32.22,0000 0000 0000 0000 000000
2016-05-16 01:51:06,0.03,1.10,0.00,24.56,28.25,31.26,14.29,48.73,1008.54,2032.00,3060.06,2838.03,3208.05,599.74,587.96,32.27,0000 0000 0000 0000 000000
2016-05-16 01:56:07,0.01,1.10,0.00,24.59,28.25,31.26,14.34,48.93,1008.47,2032.00,3059.70,2837.96,3207.90,600.17,588.17,32.32,0000 0000 0000 0000 000000
2016-05-16 02:01:08,0.04,1.11,0.00,24.59,28.26,31.25,14.29,48.77,1008.57,2032.00,3059.02,2837.45,3207.18,600.07,588.39,32.37,0000 0000 0000 0000 000000
2016-05-16 02:06:10,0.02,1.11,0.00,24.60,28.27,31.24,14.31,48.73,1008.50,2032.00,3058.36,2837.01,3207.00,600.12,588.34,32.43,0000 0000 0000 0000 000000
2016-05-16 02:11:11,0.01,1.11,0.00,24.65,28.27,31.25,14.30,48.78,1008.34,2031.99,3057.99,2836.97,3206.56,599.99,587.96,32.48,0000 0000 0000 0000 000000
2016-05-16 02:16:12,0.04,1.11,0.00,24.65,28.27,31.25,14.33,48.87,1008.32,2031.99,3057.22,2836.34,3206.00,600.33,588.24,32.53,0000 0000 0000 0000 000000
2016-05-16 02:21:14,0.03,1.11,0.00,24.65,28.27,31.25,14.32,48.91,1008.33,2031.99,3056.52,2835.99,3205.33,599.96,587.88,32.58,0000 0000 0000 0000 000000
2016-05-16 02:26:15,0.06,1.11,0.00,24.67,28.27,31.26,14.34,48.85,1008.45,2031.99,3055.31,2835.35,3204.56,599.81,587.74,32.63,0000 0000 0000 0000 000000
2016-05-16 02:31:17,0.08,1.12,0.00,24.69,28.28,31.26,14.35,48.95,1008.49,2031.99,3053.62,2834.21,3203.37,600.03,587.97,32.68,0000 0000 0000 0000 000000
2016-05-16 02:36:18,0.05,1.12,0.00,24.67,28.29,31.25,14.33,48.84,1008.39,2031.99,3052.61,2833.64,3202.63,600.33,588.28,32.73,0000 0000 0000 0000 000000
2016-05-16 02:41:19,0.07,1.12,0.00,24.68,28.30,31.26,14.33,48.61,1008.34,2031.97,3051.09,2832.65,3201.54,600.12,587.96,32.78,0000 0000 0000 0000 000000
2016-05-16 02:46:20,0.10,1.13,0.00,24.72,28.30,31.24,14.32,48.92,1008.32,2031.97,3048.95,2831.43,3199.95,599.93,587.62,32.83,0000 0000 0000 0000 000000
2016-05-16 02:51:22,0.11,1.14,0.00,24.73,28.30,31.25,14.33,48.83,1008.34,2031.99,3046.73,2829.99,3198.49,600.43,587.99,32.88,0000 0000 0000 0000 000000
2016-05-16 02:56:23,0.15,1.14,0.00,24.75,28.30,31.25,14.33,48.92,1008.32,2031.98,3043.69,2828.04,3196.36,600.26,587.91,32.93,0000 0000 0000 0000 000000
2016-05-16 03:01:24,0.11,1.15,0.00,24.79,28.30,31.22,14.35,48.88,1008.32,2031.95,3041.02,2826.33,3194.38,600.02,587.64,32.98,0000 0000 0000 0000 000000
2016-05-16 03:06:25,0.09,1.15,0.00,24.78,28.30,31.22,14.36,48.77,1008.32,2031.93,3039.06,2824.96,3192.88,600.70,588.33,33.03,0000 0000 0000 0000 000000
2016-05-16 03:11:26,0.12,1.16,0.00,24.78,28.30,31.24,14.34,48.80,1008.32,2031.83,3036.42,2823.38,3190.96,599.98,587.73,33.08,0000 0000 0000 0000 000000
2016-05-16 03:16:28,0.13,1.17,0.00,24.80,28.32,31.25,14.25,48.85,1008.31,2031.87,3034.03,2821.78,3189.30,599.98,587.67,33.13,0000 0000 0000 0000 000000
2016-05-16 03:21:29,0.14,1.17,0.00,24.78,28.32,31.27,14.33,48.83,1008.30,2031.89,3031.22,2819.98,3187.22,600.08,587.71,33.18,0000 0000 0000 0000 000000
2016-05-16 03:26:30,0.07,1.18,0.00,24.81,28.32,31.26,14.26,48.81,1008.31,2031.86,3029.07,2818.74,3185.75,600.13,587.73,33.23,0000 0000 0000 0000 000000
2016-05-16 03:31:32,0.07,1.18,0.00,24.85,28.32,31.30,14.35,48.93,1008.31,2031.84,3027.65,2817.76,3184.67,600.23,587.74,33.28,0000 0000 0000 0000 000000
2016-05-16 03:36:33,0.04,1.19,0.00,24.84,28.32,31.27,14.31,49.02,1008.29,2031.84,3026.46,2817.02,3184.00,600.05,587.57,33.33,0000 0000 0000 0000 000000
2016-05-16 03:41:34,0.00,1.19,0.00,24.87,28.32,31.27,14.30,48.98,1008.29,2031.80,3025.99,2816.94,3183.39,599.98,587.45,33.38,0000 0000 0000 0000 000000
2016-05-16 03:46:35,0.04,1.19,0.00,24.88,28.33,31.26,14.29,48.97,1008.27,2031.66,3025.36,2816.22,3182.99,600.13,587.54,33.44,0000 0000 0000 0000 000000
2016-05-16 03:51:37,0.01,1.19,0.00,24.87,28.33,31.27,14.29,49.00,1008.10,2031.48,3024.66,2816.00,3182.31,600.27,587.60,33.49,0000 0000 0000 0000 000000
2016-05-16 03:56:38,-0.00,1.19,0.00,24.87,28.35,31.25,14.28,49.01,1008.10,2031.44,3024.02,2815.91,3181.99,600.04,587.47,33.54,0000 0000 0000 0000 000000
2016-05-16 04:01:39,0.06,1.19,0.00,24.89,28.35,31.28,14.23,48.94,1008.02,2031.41,3023.50,2815.20,3181.51,599.76,587.02,33.59,0000 0000 0000 0000 000000
2016-05-16 04:06:41,0.03,1.19,0.00,24.88,28.35,31.31,14.34,49.07,1008.17,2031.29,3022.31,2814.79,3180.78,600.04,587.46,33.64,0000 0000 0000 0000 000000
2016-05-16 04:11:42,0.07,1.20,0.00,24.90,28.35,31.30,14.27,48.98,1008.28,2031.14,3020.64,2813.75,3179.65,599.99,587.37,33.69,0000 0000 0000 0000 000000
2016-05-16 04:16:44,0.14,1.20,0.00,24.88,28.35,31.29,14.34,48.88,1008.31,2031.06,3017.76,2812.07,3177.70,600.24,587.63,33.74,0000 0000 0000 0000 000000
2016-05-16 04:21:45,0.08,1.21,0.00,24.90,28.35,31.30,14.30,48.97,1008.25,2031.05,3015.34,2810.74,3176.10,599.96,587.33,33.79,0000 0000 0000 0000 000000
2016-05-16 04:26:47,0.05,1.21,0.00,24.90,28.35,31.27,14.32,49.03,1008.11,2031.06,3014.18,2809.98,3175.13,600.00,587.24,33.84,0000 0000 0000 0000 000000
2016-05-16 04:31:48,0.06,1.22,0.00,24.90,28.37,31.30,14.31,48.90,1008.05,2031.07,3013.02,2809.11,3174.19,600.15,587.40,33.89,0000 0000 0000 0000 000000
2016-05-16 04:36:50,0.06,1.22,0.00,24.92,28.37,31.31,14.36,48.96,1008.06,2031.06,3011.90,2808.48,3173.46,600.72,587.92,33.94,0000 0000 0000 0000 000000
2016-05-16 04:41:51,0.12,1.22,0.00,24.92,28.37,31.34,14.28,48.84,1007.98,2031.01,3009.57,2807.03,3171.68,600.18,587.35,33.99,0000 0000 0000 0000 000000
2016-05-16 04:46:52,0.13,1.23,0.00,24.93,28.37,31.35,14.30,48.88,1008.26,2031.03,3007.21,2805.31,3169.86,599.95,587.34,34.04,0000 0000 0000 0000 000000
2016-05-16 04:51:53,0.13,1.24,0.00,24.97,28.37,31.34,14.34,48.96,1008.28,2031.01,3004.44,2803.46,3167.74,600.24,587.46,34.09,0000 0000 0000 0000 000000
2016-05-16 04:56:55,0.24,1.24,0.00,24.95,28.38,31.34,14.32,48.92,1008.10,2031.01,3000.78,2801.04,3165.00,600.00,587.23,34.14,0000 0000 0000 0000 000000
2016-05-16 05:01:56,0.20,1.26,0.00,24.96,28.39,31.34,14.33,48.86,1007.90,2031.00,2995.60,2797.69,3161.36,600.20,587.26,34.19,0000 0000 0000 0000 000000
2016-05-16 05:06:57,0.08,1.26,0.00,24.98,28.40,31.32,14.34,49.00,1008.05,2031.00,2993.80,2796.60,3159.94,600.52,587.56,34.24,0000 0000 0000 0000 000000
2016-05-16 05:11:59,0.09,1.27,0.00,24.97,28.40,31.35,14.39,49.15,1008.21,2031.00,2991.91,2795.36,3158.55,600.13,587.29,34.29,0000 0000 0000 0000 000000
2016-05-16 05:17:00,0.12,1.27,0.00,24.97,28.40,31.37,14.33,49.02,1008.19,2031.00,2989.45,2793.75,3156.78,599.94,587.13,34.34,0000 0000 0000 0000 000000
2016-05-16 05:22:01,0.09,1.28,0.00,24.96,28.40,31.36,14.26,48.88,1008.27,2031.00,2987.48,2792.43,3155.32,600.05,587.47,34.40,0000 0000 0000 0000 000000
2016-05-16 05:27:03,0.07,1.28,0.00,24.90,28.41,31.36,14.28,48.95,1008.27,2031.00,2986.03,2791.57,3154.23,599.83,587.38,34.45,0000 0000 0000 0000 000000
2016-05-16 05:32:04,0.11,1.29,0.00,24.83,28.41,31.37,14.33,48.92,1008.11,2031.00,2983.65,2790.07,3152.43,599.93,587.36,34.50,0000 0000 0000 0000 000000
2016-05-16 05:37:05,0.10,1.29,0.00,24.70,28.40,31.39,14.30,49.02,1007.97,2031.00,2981.85,2788.80,3151.14,599.80,587.39,34.55,0000 0000 0000 0000 000000
2016-05-16 05:42:06,0.06,1.30,0.00,24.43,28.40,31.45,14.37,48.83,1007.87,2031.00,2980.08,2787.85,3149.92,599.78,587.78,34.60,0000 0000 0000 0000 000000
2016-05-16 05:47:08,0.07,1.30,0.00,24.18,28.37,31.47,14.34,48.80,1007.85,2031.00,2978.71,2786.95,3148.86,599.98,588.61,34.65,0000 0000 0000 0000 000000
2016-05-16 05:52:09,0.05,1.31,0.00,23.99,28.35,31.49,14.38,48.79,1007.84,2031.00,2977.22,2786.07,3148.03,600.11,589.00,34.70,0000 0000 0000 0000 000000
2016-05-16 05:57:10,0.05,1.31,0.00,24.11,28.33,31.45,14.38,48.85,1007.84,2031.00,2976.40,2785.70,3147.29,600.23,588.84,34.75,0000 0000 0000 0000 000000
2016-05-16 06:02:11,0.03,1.31,0.00,24.32,28.32,31.41,14.37,48.73,1007.83,2031.04,2975.76,2785.05,3146.89,599.99,588.26,34.80,0000 0000 0000 0000 000000
2016-05-16 06:07:13,0.02,1.31,0.00,24.41,28.32,31.37,14.39,48.78,1007.83,2031.05,2975.02,2784.98,3146.08,600.34,588.43,34.85,0000 0000 0000 0000 000000
2016-05-16 06:12:14,0.06,1.31,0.00,24.50,28.32,31.37,14.29,48.70,1007.83,2031.16,2974.25,2784.29,3145.74,599.94,587.86,34.90,0000 0000 0000 0000 000000
2016-05-16 06:17:15,0.02,1.32,0.00,24.54,28.34,31.38,14.34,48.66,1007.83,2031.15,2973.54,2783.99,3145.04,600.22,588.01,34.95,0000 0000 0000 0000 000000
2016-05-16 06:22:17,0.07,1.32,0.00,24.57,28.35,31.38,14.31,48.61,1007.83,2031.17,2972.44,2783.19,3144.35,599.94,587.65,35.00,0000 0000 0000 0000 000000
2016-05-16 06:27:18,0.06,1.32,0.00,24.54,28.35,31.39,14.35,49.02,1007.83,2031.10,2970.80,2782.10,3143.12,600.23,587.95,35.05,0000 0000 0000 0000 000000
2016-05-16 06:32:20,0.13,1.33,0.00,24.56,28.35,31.44,14.33,49.02,1007.84,2031.10,2968.66,2780.89,3141.69,600.11,587.90,35.10,0000 0000 0000 0000 000000
2016-05-16 06:37:21,0.10,1.34,0.00,24.63,28.37,31.49,14.34,48.96,1007.84,2031.08,2966.06,2779.20,3139.71,599.98,587.65,35.15,0000 0000 0000 0000 000000
2016-05-16 06:42:22,0.08,1.34,0.00,24.69,28.39,31.53,14.36,49.02,1007.85,2031.03,2964.50,2778.02,3138.56,600.04,587.69,35.20,0000 0000 0000 0000 000000
2016-05-16 06:47:23,0.09,1.34,0.00,24.77,28.41,31.58,14.32,49.10,1007.98,2031.01,2962.67,2776.85,3137.04,600.20,587.62,35.25,0000 0000 0000 0000 000000
2016-05-16 06:52:24,0.12,1.35,0.00,24.85,28.45,31.63,14.27,49.08,1007.98,2031.00,2960.33,2775.24,3135.22,599.58,586.84,35.31,0000 0000 0000 0000 000000
2016-05-16 06:57:25,0.09,1.35,0.00,24.91,28.49,31.70,14.35,49.09,1007.88,2030.98,2958.57,2774.16,3134.14,600.15,587.38,35.36,0000 0000 0000 0000 000000
2016-05-16 07:02:27,0.08,1.36,0.00,24.95,28.53,31.76,14.28,49.04,1007.95,2030.89,2956.70,2772.87,3132.61,599.91,587.01,35.41,0000 0000 0000 0000 000000
2016-05-16 07:07:28,-0.00,1.36,0.00,25.00,28.57,31.83,14.28,48.87,1008.06,2030.32,2955.34,2771.97,3131.47,599.66,586.76,35.46,0000 0000 0000 0000 000000
2016-05-16 07:12:29,0.06,1.36,0.00,25.06,28.62,31.90,14.23,48.67,1008.31,2030.06,2954.02,2771.05,3130.49,599.87,586.95,35.51,0000 0000 0000 0000 000000
2016-05-16 07:17:30,0.10,1.37,0.00,25.11,28.67,31.95,14.35,48.91,1008.27,2030.00,2952.19,2769.83,3128.98,599.98,586.94,35.56,0000 0000 0000 0000 000000
2016-05-16 07:22:31,0.10,1.37,0.00,25.12,28.72,32.01,14.41,48.90,1008.31,2030.00,2950.12,2768.37,3127.36,600.33,587.24,35.61,0000 0000 0000 0000 000000
2016-05-16 07:27:33,0.06,1.38,0.00,25.15,28.77,32.08,14.36,48.88,1008.31,2029.91,2948.75,2767.42,3126.19,599.74,586.65,35.66,0000 0000 0000 0000 000000
2016-05-16 07:32:34,0.02,1.38,0.00,25.19,28.81,32.14,14.30,48.91,1008.32,2029.44,2947.45,2766.49,3125.07,600.18,587.04,35.71,0000 0000 0000 0000 000000
2016-05-16 07:37:36,0.05,1.38,0.00,25.22,28.86,32.19,14.24,48.81,1008.36,2029.05,2945.95,2765.60,3123.88,599.88,586.63,35.76,0000 0000 0000 0000 000000
2016-05-16 07:42:37,0.06,1.38,0.00,25.24,28.91,32.24,14.32,48.91,1008.36,2029.01,2944.71,2764.68,3122.86,599.94,586.69,35.81,0000 0000 0000 0000 000000
2016-05-16 07:47:39,0.10,1.39,0.00,25.25,28.95,32.27,14.34,48.96,1008.42,2029.00,2942.96,2763.46,3121.47,600.12,586.98,35.86,0000 0000 0000 0000 000000
2016-05-16 07:52:40,0.06,1.39,0.00,25.25,29.00,32.31,14.28,48.94,1008.38,2028.99,2941.61,2762.42,3120.25,600.05,586.87,35.91,0000 0000 0000 0000 000000
2016-05-16 07:57:41,0.04,1.39,0.00,25.27,29.04,32.34,14.30,48.94,1008.63,2028.80,2940.40,2761.57,3119.22,600.16,586.97,35.96,0000 0000 0000 0000 000000
2016-05-16 08:02:42,-0.01,1.39,0.00,25.28,29.08,32.37,14.26,48.87,1008.67,2028.34,2939.54,2761.01,3118.45,599.62,586.39,36.01,0000 0000 0000 0000 000000
2016-05-16 08:07:43,0.03,1.39,0.00,25.30,29.12,32.41,14.34,48.72,1008.45,2028.06,2938.73,2760.47,3117.84,599.83,586.53,36.06,0000 0000 0000 0000 000000
2016-05-16 08:12:45,0.07,1.40,0.00,25.31,29.15,32.44,14.26,48.77,1008.38,2028.01,2937.43,2759.60,3116.82,599.73,586.33,36.11,0000 0000 0000 0000 000000
2016-05-16 08:17:47,0.07,1.40,0.00,25.34,29.19,32.50,14.30,48.89,1008.63,2028.00,2936.05,2758.64,3115.67,600.22,586.98,36.17,0000 0000 0000 0000 000000
2016-05-16 08:22:48,0.07,1.40,0.00,25.35,29.22,32.51,14.29,48.82,1008.48,2028.00,2934.59,2757.71,3114.52,600.10,586.67,36.22,0000 0000 0000 0000 000000
2016-05-16 08:27:49,0.05,1.41,0.00,25.35,29.26,32.54,14.39,49.03,1008.36,2027.95,2933.49,2756.85,3113.58,600.19,586.76,36.27,0000 0000 0000 0000 000000
2016-05-16 08:32:51,0.05,1.41,0.00,25.36,29.28,32.56,14.40,48.99,1008.33,2027.84,2932.51,2756.04,3112.70,600.60,587.08,36.32,0000 0000 0000 0000 000000
2016-05-16 08:37:51,0.01,1.41,0.00,25.38,29.31,32.59,14.27,48.92,1008.35,2027.38,2931.14,2755.13,3111.70,599.80,586.24,36.37,0000 0000 0000 0000 000000
2016-05-16 08:42:53,0.06,1.41,0.00,25.37,29.34,32.62,14.22,48.81,1008.34,2027.05,2929.61,2754.18,3110.43,599.53,586.09,36.42,0000 0000 0000 0000 000000
2016-05-16 08:47:54,0.07,1.42,0.00,25.37,29.36,32.65,14.25,48.68,1008.33,2027.00,2928.17,2753.07,3109.18,599.84,586.32,36.47,0000 0000 0000 0000 000000
2016-05-16 08:52:56,0.09,1.42,0.00,25.38,29.39,32.66,14.38,48.74,1008.32,2027.00,2926.56,2752.07,3107.91,600.18,586.85,36.52,0000 0000 0000 0000 000000
2016-05-16 08:57:57,0.07,1.43,0.00,25.38,29.41,32.68,14.40,49.05,1008.40,2027.00,2925.19,2751.22,3106.82,600.29,586.78,36.57,0000 0000 0000 0000 000000
2016-05-16 09:02:59,0.05,1.43,0.00,25.38,29.43,32.69,14.37,48.83,1008.38,2026.97,2924.02,2750.28,3105.89,600.18,586.68,36.62,0000 0000 0000 0000 000000
2016-05-16 09:08:00,0.03,1.43,0.00,25.36,29.46,32.71,14.28,48.64,1008.36,2026.94,2923.17,2750.00,3105.07,600.01,586.55,36.67,0000 0000 0000 0000 000000
2016-05-16 09:13:01,0.02,1.43,0.00,25.35,29.47,32.73,14.32,48.77,1008.72,2026.95,2922.82,2749.67,3104.86,600.10,586.92,36.72,0000 0000 0000 0000 000000
2016-05-16 09:18:03,0.03,1.44,0.00,25.34,29.50,32.76,14.32,48.64,1008.79,2026.88,2922.06,2749.05,3104.11,600.15,586.88,36.77,0000 0000 0000 0000 000000
2016-05-16 09:23:04,0.02,1.44,0.00,25.35,29.51,32.76,14.27,48.63,1008.79,2026.73,2921.53,2748.90,3103.61,600.14,586.92,36.82,0000 0000 0000 0000 000000
2016-05-16 09:28:06,-0.01,1.44,0.00,25.37,29.52,32.78,14.35,48.66,1008.80,2026.30,2921.02,2748.24,3103.02,600.39,587.13,36.87,0000 0000 0000 0000 000000
2016-05-16 09:33:07,0.00,1.44,0.00,25.34,29.55,32.76,14.30,48.56,1008.80,2026.04,2920.69,2748.00,3102.74,600.05,586.98,36.92,0000 0000 0000 0000 000000
2016-05-16 09:38:09,0.02,1.44,0.00,25.32,29.55,32.76,14.33,48.55,1008.80,2026.02,2920.02,2747.93,3102.05,600.12,586.92,36.97,0000 0000 0000 0000 000000
2016-05-16 09:43:10,0.03,1.44,0.00,25.32,29.57,32.78,14.22,48.49,1008.79,2026.00,2919.78,2747.31,3101.84,599.68,586.61,37.02,0000 0000 0000 0000 000000
2016-05-16 09:48:11,0.02,1.44,0.00,25.31,29.57,32.77,14.35,48.59,1008.67,2026.00,2919.07,2747.01,3101.11,600.35,587.11,37.07,0000 0000 0000 0000 000000
2016-05-16 09:53:12,0.00,1.44,0.00,25.31,29.58,32.77,14.32,48.72,1008.46,2026.00,2918.94,2746.99,3100.99,600.03,586.68,37.13,0000 0000 0000 0000 000000
2016-05-16 09:58:14,0.03,1.44,0.00,25.34,29.60,32.78,14.24,48.57,1008.34,2026.00,2918.25,2746.84,3100.65,599.87,586.48,37.18,0000 0000 0000 0000 000000
2016-05-16 10:03:15,0.02,1.44,0.00,25.31,29.60,32.79,14.35,48.65,1008.33,2026.00,2918.00,2746.37,3100.06,600.11,586.71,37.23,0000 0000 0000 0000 000000
2016-05-16 10:08:16,0.01,1.44,0.00,25.29,29.60,32.77,14.33,48.63,1008.34,2026.00,2917.72,2746.03,3100.00,600.13,586.76,37.28,0000 0000 0000 0000 000000
2016-05-16 10:13:18,0.03,1.44,0.00,25.28,29.60,32.77,14.29,48.56,1008.36,2026.00,2916.98,2745.96,3099.35,599.95,586.60,37.33,0000 0000 0000 0000 000000
2016-05-16 10:18:19,0.03,1.45,0.00,25.25,29.60,32.78,14.30,48.49,1008.49,2026.00,2916.22,2745.42,3098.99,600.03,586.83,37.38,0000 0000 0000 0000 000000
2016-05-16 10:23:20,0.07,1.45,0.00,25.22,29.61,32.76,14.23,48.55,1008.51,2025.99,2915.31,2744.73,3098.04,599.48,586.30,37.43,0000 0000 0000 0000 000000
2016-05-16 10:28:22,0.08,1.45,0.00,25.18,29.61,32.76,14.35,48.51,1008.45,2025.99,2913.54,2743.71,3096.73,600.12,586.90,37.48,0000 0000 0000 0000 000000
2016-05-16 10:33:23,0.09,1.46,0.00,25.17,29.61,32.77,14.32,48.49,1008.34,2025.98,2911.67,2742.55,3095.46,599.92,586.65,37.53,0000 0000 0000 0000 000000
2016-05-16 10:38:24,0.12,1.46,0.00,25.15,29.61,32.75,14.31,48.52,1008.33,2025.97,2909.41,2741.03,3093.72,600.05,586.96,37.58,0000 0000 0000 0000 000000
2016-05-16 10:43:25,0.10,1.47,0.00,25.14,29.60,32.74,14.38,48.64,1008.33,2025.99,2907.36,2739.78,3092.19,600.13,587.12,37.63,0000 0000 0000 0000 000000
2016-05-16 10:48:27,0.05,1.47,0.00,25.08,29.60,32.75,14.32,48.75,1008.35,2025.98,2906.03,2738.98,3091.07,600.05,587.11,37.68,0000 0000 0000 0000 000000
2016-05-16 10:53:28,0.02,1.48,0.00,25.05,29.60,32.74,14.29,48.77,1008.57,2025.97,2905.31,2738.62,3090.96,599.88,587.26,37.73,0000 0000 0000 0000 000000
2016-05-16 10:58:29,0.03,1.48,0.00,25.02,29.60,32.70,14.34,48.65,1008.75,2025.98,2905.00,2738.09,3090.38,599.56,587.01,37.78,0000 0000 0000 0000 000000
2016-05-16 11:03:31,0.00,1.48,0.00,24.98,29.57,32.65,14.32,48.59,1008.46,2025.99,2904.98,2738.02,3090.06,599.94,587.33,37.83,0000 0000 0000 0000 000000
2016-05-16 11:08:32,0.01,1.48,0.00,24.95,29.57,32.65,14.35,48.75,1008.43,2025.99,2904.53,2738.00,3090.00,599.81,587.15,37.88,0000 0000 0000 0000 000000
2016-05-16 11:13:33,0.00,1.48,0.00,24.91,29.56,32.66,14.33,48.72,1008.38,2025.99,2904.03,2738.00,3089.99,599.94,587.49,37.93,0000 0000 0000 0000 000000
2016-05-16 11:18:35,0.01,1.48,0.00,24.88,29.55,32.62,14.36,48.79,1008.33,2025.99,2903.99,2737.97,3089.59,599.96,587.24,37.98,0000 0000 0000 0000 000000
2016-05-16 11:23:36,0.01,1.48,0.00,24.85,29.53,32.62,14.35,48.81,1008.33,2025.99,2903.78,2737.96,3089.23,599.67,587.20,38.04,0000 0000 0000 0000 000000
2016-05-16 11:28:38,0.04,1.48,0.00,24.82,29.52,32.60,14.31,48.70,1008.33,2025.99,2903.10,2737.27,3089.02,599.94,587.54,38.09,0000 0000 0000 0000 000000
2016-05-16 11:33:39,0.00,1.48,0.00,24.79,29.50,32.57,14.34,48.67,1008.36,2025.99,2902.99,2737.00,3088.93,600.01,587.65,38.14,0000 0000 0000 0000 000000
2016-05-16 11:38:40,0.02,1.48,0.00,24.76,29.48,32.57,14.33,48.71,1008.35,2026.00,2902.65,2737.00,3088.66,599.76,587.46,38.19,0000 0000 0000 0000 000000
2016-05-16 11:43:41,0.01,1.48,0.00,24.73,29.46,32.53,14.40,48.90,1008.32,2026.02,2902.04,2737.00,3088.12,600.05,587.69,38.24,0000 0000 0000 0000 000000
2016-05-16 11:48:42,0.01,1.48,0.00,24.71,29.45,32.52,14.30,48.82,1008.33,2026.05,2902.00,2736.99,3088.00,600.08,587.99,38.29,0000 0000 0000 0000 000000
2016-05-16 11:53:44,0.01,1.48,0.00,24.67,29.42,32.50,14.38,48.88,1008.32,2026.09,2901.68,2736.90,3087.99,599.76,587.67,38.34,0000 0000 0000 0000 000000
2016-05-16 11:58:45,0.04,1.49,0.00,24.65,29.41,32.47,14.42,48.85,1008.33,2026.19,2901.07,2736.45,3087.85,600.25,588.15,38.39,0000 0000 0000 0000 000000
2016-05-16 12:03:46,0.04,1.49,0.00,24.62,29.39,32.45,14.37,48.71,1008.34,2026.46,2901.00,2736.17,3087.29,599.79,587.78,38.44,0000 0000 0000 0000 000000
2016-05-16 12:08:47,0.03,1.49,0.00,24.60,29.36,32.45,14.39,48.84,1008.34,2026.77,2900.91,2736.04,3087.02,600.15,588.18,38.49,0000 0000 0000 0000 000000
2016-05-16 12:13:49,0.02,1.49,0.00,24.57,29.35,32.43,14.34,48.73,1008.35,2026.89,2900.33,2736.00,3087.00,599.75,587.86,38.54,0000 0000 0000 0000 000000
2016-05-16 12:18:50,0.01,1.49,0.00,24.54,29.32,32.39,14.40,48.90,1008.33,2026.94,2899.97,2736.00,3086.96,600.11,588.19,38.59,0000 0000 0000 0000 000000
2016-05-16 12:23:51,0.02,1.49,0.00,24.52,29.30,32.39,14.37,48.79,1008.34,2026.97,2899.37,2735.98,3086.59,599.88,588.10,38.64,0000 0000 0000 0000 000000
2016-05-16 12:28:52,0.00,1.49,0.00,24.49,29.28,32.35,14.29,48.96,1008.33,2026.99,2899.03,2735.97,3086.24,599.74,587.91,38.69,0000 0000 0000 0000 000000
2016-05-16 12:33:53,0.00,1.50,0.00,24.45,29.26,32.32,14.42,48.88,1008.32,2026.99,2899.00,2735.98,3086.07,600.11,588.40,38.74,0000 0000 0000 0000 000000
2016-05-16 12:38:55,0.00,1.50,0.00,24.43,29.24,32.32,14.41,48.88,1008.32,2026.99,2898.99,2735.95,3086.04,600.10,588.28,38.79,0000 0000 0000 0000 000000
2016-05-16 12:43:55,0.00,1.50,0.00,24.41,29.21,32.29,14.37,48.83,1008.32,2027.00,2898.90,2735.96,3086.00,599.86,588.15,38.84,0000 0000 0000 0000 000000
2016-05-16 12:48:56,0.01,1.50,0.00,24.37,29.19,32.26,14.35,48.78,1008.32,2027.03,2898.50,2735.97,3086.00,600.09,588.54,38.89,0000 0000 0000 0000 000000
2016-05-16 12:53:58,0.03,1.50,0.00,24.34,29.17,32.23,14.48,48.69,1008.32,2027.20,2898.12,2735.95,3086.00,600.36,588.73,38.95,0000 0000 0000 0000 000000